Location: North Evanston
(42.0634°N, 87.6976°W)
Time: 14:53:12
(UTC+00:00)

Injun/Solrad 3 - Pass Details

Date: 16 May 2026
Orbit: 867 x 989 km, 66.8° (Epoch: 7 June)

Event Time Altitude Azimuth Distance (km) Brightness Sun altitude
Rises 22:38:30 0° 253° (WSW) 3,535 12.1 25.3°
Reaches altitude 10° 22:41:33 10° 268° (W) 2,618 12.2 24.8°
Maximum altitude 22:46:16 23° 319° (NW) 1,899 10.5 23.9°
Drops below altitude 10° 22:51:07 10° 9° (N) 2,694 10.4 23.0°
Sets 22:54:19 0° 24° (NNE) 3,662 10.8 22.4°
